Location: ????????
(38.4362°N, 22.8767°E)
Time: 07:01:44
(UTC+00:00)

ATLAS 2AS CENTAUR R/B - Visible Passes

Search period start: 13 July 2024 00:00
Search period end: 23 July 2024 00:00
Orbit: 1019 x 1192 km, 63.7° (Epoch: 12 July)

Date Brightness Start Highest point End Pass type
(mag) Time Alt. Az. Time Alt. Az. Time Alt. Az.
16 Jul 5.2 02:46:24 10° SE 02:50:33 16° ESE 02:54:37 10° ENE visible
19 Jul 4.9 02:20:55 10° SSE 02:26:17 22° ESE 02:31:32 10° ENE visible
20 Jul 5.2 01:39:10 10° SE 01:41:46 12° ESE 01:44:20 10° E visible
21 Jul 3.8 02:39:44 10° S 02:46:46 47° ESE 02:53:35 10° NE visible
22 Jul 4.4 01:55:53 10° SSE 02:02:03 29° ESE 02:08:05 10° NE visible
